Miscellaneous Local Product
Issued by NWS Hastings, NE

Current Version | Previous Version | Text Only | Print | Product List | Glossary On
Versions: 1 2 3 4 5 6 7 8 9 10 11 12 13 14 15 16 17 18 19 20 21 22 23 24 25 26 27 28 29 30 31 32 33 34 35 36 37 38 39 40 41 42 43 44 45 46 47 48 49 50
149
AXUS43 KGID 270502
MISGRI

GID CWA HOURLY WEATHER ROUNDUP
NATIONAL WEATHER SERVICE HASTINGS NE
1100 PM CST SUN FEB 26 2017

NOTE: "FAIR" INDICATES FEW OR NO CLOUDS BELOW 12,000 FEET WITH NO
SIGNIFICANT WEATHER AND/OR OBSTRUCTIONS TO VISIBILITY.

...SOUTH CENTRAL NEBRASKA...

CITY           SKY/WX    TMP DP  RH WIND       PRES   REMARKS
GRAND ISLAND   CLEAR     29  19  66 S7        29.96F WCI  22
HASTINGS       CLEAR     27  15  61 CALM      29.97F
KEARNEY        CLEAR     28  16  59 CALM      29.95F
ORD            CLEAR     22  14  71 CALM      29.92S
YORK           CLEAR     28  25  86 S6        29.98S WCI  22
AURORA         CLEAR     27  18  70 CALM      29.96F
LEXINGTON      CLEAR     21  17  82 CALM      29.94S
HOLDREGE       CLEAR     25  13  59 CALM      29.94S
HEBRON         CLEAR     24  18  79 CALM      30.00S

...NEBRASKA PANHANDLE...

CITY           SKY/WX    TMP DP  RH WIND       PRES   REMARKS
CHADRON        CLEAR      9   4  80 SW3       29.81F
ALLIANCE       CLEAR      1  -3  83 S7        29.80F WCI -12
SCOTTSBLUFF    CLEAR     13   4  67 E6        29.81F WCI   4
SIDNEY         CLEAR     15   8  73 S5        29.82F WCI   8

...WESTERN AND NORTH CENTRAL NEBRASKA...

CITY           SKY/WX    TMP DP  RH WIND       PRES   REMARKS
VALENTINE      CLEAR     13   6  74 SW3       29.87F
AINSWORTH      CLEAR     16  10  79 SW8       29.88S WCI   5
ONEILL         CLEAR     19  14  82 SW8       29.91F WCI   8
BROKEN BOW     CLEAR     16  11  80 CALM      29.91F
IMPERIAL       CLEAR     21  12  68 SE6       29.89S WCI  13
NORTH PLATTE   CLEAR     18  12  77 NE3       29.91S
MCCOOK         CLEAR     21  10  62 NE3       29.92S

...EASTERN NEBRASKA...

CITY           SKY/WX    TMP DP  RH WIND       PRES   REMARKS
NORFOLK        CLEAR     28  20  71 S10       29.94F WCI  19
SO SIOUX CITY  CLEAR     19  16  88 E7        29.98S WCI  10
TEKAMAH        CLEAR     23  20  88 S6        30.00R WCI  16
COLUMBUS       CLEAR     27  21  80 CALM      29.98S
ALBION         CLEAR     26  18  70 CALM      29.95S
OMAHA EPPLEY   CLEAR     28  20  71 SE6       30.01S WCI  22
OFFUTT AFB     CLEAR     23  20  89 CALM      30.01S
MILLARD        CLEAR     30  26  85 CALM      30.01S
LINCOLN        CLEAR     28  22  78 S3        30.01S
NEBRASKA CITY  CLEAR     35  17  46 SE3       30.01S
BEATRICE       CLEAR     28  20  71 CALM      30.00F
FALLS CITY     CLEAR     30  21  69 NW5       30.02S WCI  25

...NORTHERN KANSAS...

CITY           SKY/WX    TMP DP  RH WIND       PRES   REMARKS
GOODLAND       CLEAR     20   7  57 SE8       29.85S WCI  10
HILL CITY      CLEAR     18   7  62 CALM      29.94F
PHILLIPSBURG   CLEAR     23  10  58 CALM      29.96F
SMITH CENTER   CLEAR     27  10  50 E8        29.96F WCI  18
HAYS           CLEAR     29  10  45 E8        29.95F WCI  21
RUSSELL        CLEAR     33   8  35 E10       29.95F WCI  25
CONCORDIA      CLEAR     28  12  51 SE3       29.99F
SALINA         CLEAR     34  21  59 CALM      30.00F
TOPEKA         CLEAR     38  32  79 S6        30.03R WCI  33



USA.gov is the U.S. government's official web portal to all federal, state and local government web resources and services.